Temp
20 19 18 18 17 16 15 14 14 13 13 12 12 11 11 11 11 10 10 9 9 9 8 8 8 7 7 7 7 6 6 5 3 5 5 6 6 6 6 6 6 5 5
21 19 18 18 16 15 15 14 14 13 13 12 12 11 11 10 10 10 10 9 9 9 8 8 8 7 7 7 6 6 6 6 4 4 5 5 6 6 6 6 6 5 5
20 19 18 17 16 16 15 14 14 13 13 12 12 11 11 10 10 10 10 9 9 9 8 8 8 7 7 6 7 6 6 6 6 4 4 5 5 5 6 6 5 5 5
19 18 18 17 17 16 15 15 14 13 13 12 12 11 11 11 10 10 9 9 8 8 8 8 8 7 7 6 6 6 6 6 5 4 3 3 4 5 5 5 5 5 5
18 18 18 17 16 15 15 14 14 13 13 12 12 11 11 11 10 10 10 9 8 8 7 7 7 7 7 6 6 6 6 5 4 3 3 3 4 4 4 5 4 4 4
18 18 17 17 16 16 15 14 14 13 13 12 12 11 11 11 11 10 10 9 9 8 7 7 7 7 6 6 6 6 5 5 4 3 3 3 3 4 5 5 4 2 1
17 18 17 17 17 16 15 14 14 13 13 12 12 11 11 11 11 10 9 9 8 8 7 7 7 7 7 6 7 7 7 7 5 6 4 4 4 5 5 4 3 2 1
17 17 17 17 16 16 15 14 14 13 13 12 12 12 11 12 11 10 10 8 8 8 7 7 7 7 7 7 6 6 6 7 7 7 5 6 6 6 5 5 5 3 2
17 17 17 17 16 16 15 15 15 13 13 12 12 12 11 12 11 11 10 8 8 8 7 7 6 6 7 6 5 5 5 5 6 7 7 6 6 5 5 4 3 1 -0
18 18 18 17 16 16 16 15 15 13 13 13 12 12 12 12 12 11 10 8 7 7 7 7 7 7 7 6 5 5 4 5 6 5 6 5 5 5 4 4 4 2 1
19 18 17 17 16 15 15 15 14 14 13 12 11 12 11 11 11 10 10 8 7 7 7 7 7 7 6 6 5 5 5 5 5 4 5 5 5 5 5 4 4 3 2
19 18 18 17 16 16 15 15 14 13 11 11 11 11 11 11 11 10 10 9 8 7 7 7 7 7 6 6 6 6 6 5 4 4 3 4 4 4 4 4 4 4 4
16 17 17 16 15 15 14 14 12 12 11 10 9 9 10 10 10 10 9 8 8 7 7 7 7 7 6 6 6 6 6 6 5 3 2 3 4 5 5 4 4 3 3
16 15 15 14 14 15 14 13 11 11 10 8 8 8 9 9 9 8 8 8 7 7 7 7 7 7 7 6 5 5 6 5 5 4 3 3 3 3 3 4 3 3 2
15 14 14 14 14 13 13 12 11 11 11 10 9 9 8 7 7 6 6 6 6 6 6 6 6 6 6 5 5 5 5 5 5 4 3 3 3 3 3 3 2 2 1
13 14 14 13 13 12 10 10 10 9 9 9 8 7 7 6 6 5 6 5 5 5 5 5 5 5 5 5 4 4 5 5 5 4 4 2 2 2 3 3 2 2 1
13 13 12 11 10 10 9 8 7 9 8 8 7 7 6 5 5 5 4 4 5 5 5 4 4 4 4 4 4 4 4 4 4 4 3 2 2 2 1 2 2 2 1
12 12 11 10 9 9 8 8 7 6 5 5 6 5 5 4 4 3 3 4 4 4 4 4 3 4 4 4 4 4 4 3 3 3 3 2 2 2 1 1 1 1 1
11 10 9 8 8 8 7 6 5 5 4 4 3 3 3 2 2 2 2 2 2 2 3 3 3 3 3 3 3 3 3 3 3 2 2 2 2 1 1 1 1 2 1
9 9 8 7 7 6 5 5 4 3 3 2 2 1 1 2 1 1 1 1 2 2 2 2 2 3 2 2 3 3 3 2 2 2 2 2 2 1 1 0 0 1 1
8 7 7 6 6 5 4 3 3 2 1 1 1 1 1 1 1 1 1 1 1 1 1 1 1 1 2 2 2 2 2 2 2 2 2 2 1 1 0 1 0 1 1
7 6 6 5 4 4 3 3 2 1 1 1 1 1 1 1 1 1 1 1 1 1 1 1 1 0 1 1 2 2 2 2 2 2 2 1 1 1 0 0 -0 0 0
6 5 4 4 3 3 2 2 1 1 1 1 1 1 1 1 0 0 -0 -0 0 -0 -0 -0 -0 -0 -0 -0 0 1 2 2 2 2 2 1 1 1 0 -0 -0 -0 -0
4 4 4 3 3 2 1 1 1 1 1 1 1 0 0 -0 -0 -1 -0 -1 -1 -1 -1 -1 -0 -0 -0 -0 -0 -0 1 1 2 2 2 1 1 1 0 -0 -0 -0 -0
4 3 3 3 2 1 1 1 1 1 1 0 0 -0 -0 -1 -1 -1 -1 -1 -1 -2 -2 -2 -2 -2 -1 -1 -1 -1 -0 0 1 2 2 2 1 1 0 0 -0 -0 -0
3 3 2 2 1 1 1 1 1 1 0 -0 -0 -1 -1 -1 -1 -1 -2 -2 -2 -2 -2 -3 -3 -3 -2 -2 -2 -1 -1 -0 1 2 2 2 1 0 0 -0 -0 -0 -1
Height
801 801 801 800 801 802 803 804 805 806 807 809 811 813 815 817 819 820 820 822 824 825 828 829 830 831 831 832 833 833 833 835 833 825 824 824 824 824 824 824 822 821 819
797 797 796 796 796 797 797 797 799 799 801 802 804 805 806 809 812 811 811 812 811 813 815 819 819 822 823 825 826 827 828 828 827 822 819 818 817 817 817 817 816 815 814
794 793 793 792 791 791 790 791 792 793 794 795 796 796 798 800 802 804 806 806 806 806 807 807 809 812 813 815 815 817 819 821 820 818 814 813 812 812 811 810 810 810 809
790 789 789 788 787 786 786 786 786 787 788 789 790 791 791 791 792 794 797 799 800 800 800 800 800 802 803 806 807 807 809 811 811 811 810 809 808 808 806 804 803 804 803
786 785 784 783 782 781 781 781 781 782 781 782 782 783 784 785 786 786 787 788 790 791 792 792 793 793 794 796 798 797 799 800 802 803 803 802 801 803 801 800 797 798 798
783 781 780 778 777 776 776 776 776 775 775 776 776 777 776 775 776 778 779 779 780 780 780 781 782 784 785 787 789 791 790 790 791 794 794 793 793 795 796 796 793 793 793
778 776 774 773 771 771 771 770 769 769 771 770 769 770 769 768 768 770 772 772 771 769 769 769 770 771 774 776 778 781 783 783 782 783 783 783 785 787 790 790 790 788 788
773 771 770 768 766 766 766 764 763 764 764 764 764 765 764 760 761 762 764 765 763 760 760 760 762 763 765 766 767 767 770 773 775 776 774 775 777 780 783 784 785 784 783
767 764 763 764 763 762 760 758 758 759 758 757 758 758 758 755 756 755 757 756 754 751 752 753 753 753 754 757 759 757 758 758 765 768 768 770 772 773 776 778 778 781 779
761 759 759 759 758 756 753 753 754 754 752 751 750 749 749 746 747 749 749 749 747 744 744 743 743 742 744 748 749 748 746 748 752 756 759 762 765 767 770 769 772 775 776
756 754 753 752 751 751 749 748 746 744 743 744 744 743 743 743 742 742 743 742 738 739 736 735 734 733 734 735 738 741 738 741 744 746 749 752 755 758 761 763 766 768 770
749 748 746 745 744 742 740 740 739 739 740 740 739 738 737 737 737 736 736 735 734 731 728 727 727 727 727 727 728 728 731 734 735 738 740 743 745 748 753 757 760 762 764
745 743 741 738 737 736 733 731 730 729 729 728 730 730 729 731 729 727 726 726 725 723 720 718 718 717 720 720 721 721 723 724 726 728 731 734 737 740 747 751 755 757 758
738 736 733 731 730 729 727 725 723 723 724 724 722 721 722 723 723 721 722 718 718 716 715 713 711 709 710 713 714 715 714 715 718 719 722 727 732 734 737 743 747 750 753
731 730 728 725 722 718 717 715 714 713 714 713 717 718 717 716 716 717 716 714 712 710 709 707 705 703 703 704 704 706 706 708 711 712 716 720 724 728 730 734 739 743 746
725 723 720 717 715 713 712 711 711 711 712 713 714 712 714 712 711 710 709 708 706 703 701 699 697 696 696 696 697 698 698 700 703 706 709 712 716 719 723 727 732 735 739
720 717 714 712 711 709 708 707 708 710 709 708 709 711 707 708 705 704 703 702 699 697 695 693 691 691 690 689 689 690 690 691 696 698 700 704 708 712 716 719 723 728 731
716 713 709 707 706 705 705 705 705 706 707 706 705 705 703 702 701 699 698 696 694 691 689 688 686 686 684 682 683 683 683 685 688 691 693 695 700 703 708 711 714 718 723
709 707 705 704 703 703 702 702 703 704 704 704 703 701 702 700 698 697 696 694 692 688 686 684 682 680 679 678 677 676 676 677 679 683 686 688 691 695 699 704 706 710 715
703 702 702 702 702 702 702 702 702 702 703 703 702 700 699 698 696 695 694 692 688 685 682 680 677 676 674 672 671 670 669 671 673 674 677 680 683 686 691 695 699 703 706
697 697 699 699 701 701 701 699 700 701 700 700 701 699 698 697 694 692 690 689 685 682 679 676 674 672 670 667 665 664 664 663 664 666 668 671 675 679 683 687 690 695 699
696 696 696 696 696 698 698 698 700 699 698 698 698 697 695 694 692 689 687 685 681 678 675 672 670 668 665 663 660 658 657 656 657 658 660 663 667 670 676 680 684 688 692
694 695 695 696 697 698 696 696 698 697 696 696 696 694 692 691 689 687 684 681 678 674 671 668 665 662 660 658 655 653 650 648 649 651 653 655 659 663 668 672 677 681 685
695 695 696 695 694 695 695 695 696 695 694 694 693 692 690 688 686 684 680 677 674 671 668 664 660 656 654 652 649 646 644 643 642 643 646 648 651 656 660 665 669 673 678
695 695 696 697 695 693 692 693 693 693 693 692 691 690 688 686 683 680 676 674 671 667 663 659 655 651 648 645 642 640 638 637 637 637 638 641 645 648 653 658 662 667 673
693 693 693 694 694 692 691 691 692 691 691 691 689 687 685 682 679 676 673 670 667 662 658 653 649 645 641 638 636 633 631 631 630 630 632 634 638 643 647 652 657 662 667
Wind_Speed
28 26 27 30 31 33 37 38 39 39 39 38 37 36 36 37 38 38 38 38 38 38 39 40 40 38 36 34 33 31 30 29 19 26 28 28 25 20 18 17 19 17 18
22 20 21 23 25 28 32 34 34 34 35 35 35 35 35 37 38 39 40 39 40 40 40 39 41 39 38 36 34 35 33 32 29 25 28 30 28 20 17 20 19 17 19
19 19 19 19 21 23 26 29 31 31 32 32 32 33 34 35 37 39 40 41 41 41 40 39 41 39 39 38 37 36 35 34 34 29 27 27 28 24 19 19 19 18 19
17 18 20 20 20 21 22 24 26 29 30 31 31 33 33 34 36 37 39 41 41 42 41 41 41 40 40 37 36 36 35 35 34 33 28 27 28 25 20 18 16 19 21
16 17 19 18 19 20 21 22 23 26 28 29 31 32 33 35 37 37 38 39 41 41 42 42 42 42 41 37 34 36 34 33 30 26 24 23 25 21 20 16 14 16 21
17 20 20 19 19 20 20 20 22 24 26 27 29 31 33 35 36 38 38 39 40 40 39 40 41 39 34 33 33 33 30 32 30 24 23 21 25 22 21 19 16 10 5
20 22 21 20 22 22 20 21 23 25 24 27 29 30 33 35 34 35 35 37 39 40 40 39 37 38 37 36 36 34 35 34 32 32 29 29 27 30 25 21 19 14 13
23 25 24 24 25 23 22 25 25 25 26 27 29 30 31 35 33 34 32 33 37 40 40 38 37 37 36 36 35 35 36 38 37 35 36 35 31 27 24 23 25 19 15
27 29 29 27 27 27 28 30 28 26 27 28 29 28 30 33 31 30 29 30 34 38 36 37 38 38 39 32 30 34 32 35 37 38 40 36 30 25 22 22 21 14 7
31 32 31 29 29 31 33 33 31 29 29 29 30 29 30 32 30 29 26 27 29 30 30 33 36 38 37 32 32 32 30 36 37 34 34 31 29 25 21 24 24 20 13
32 30 30 30 31 32 34 34 33 33 31 31 30 30 30 30 30 28 27 26 29 26 26 28 30 35 32 32 31 32 33 31 36 30 32 31 30 29 28 28 26 23 20
32 30 31 31 30 32 32 34 35 33 29 28 28 30 30 29 28 27 24 23 26 28 28 28 29 31 31 29 29 32 30 26 25 25 27 29 29 30 31 29 30 27 23
32 34 36 36 33 30 30 33 33 31 28 29 25 24 29 28 26 23 22 23 23 24 28 29 31 31 30 28 27 25 26 26 25 25 23 28 31 29 29 27 27 25 22
31 33 31 29 31 32 31 30 31 31 26 22 20 21 24 25 26 23 24 25 22 22 25 24 27 28 29 28 25 25 25 25 25 26 26 29 27 24 25 26 26 25 23
25 25 27 29 31 32 30 29 29 31 30 25 21 18 18 21 21 20 21 23 23 23 22 23 23 21 23 24 23 27 26 25 25 23 27 27 27 25 24 23 24 23 23
23 26 28 29 30 30 27 26 21 20 17 15 14 14 18 20 20 19 20 22 23 23 23 20 18 20 20 21 21 22 27 26 25 24 29 27 25 26 26 24 24 25 24
24 28 29 27 26 23 20 16 14 10 11 11 11 13 13 15 18 20 20 21 19 18 19 17 16 18 20 22 22 23 25 29 28 29 27 28 26 24 22 25 28 26 25
26 26 26 24 18 14 11 10 9 9 10 12 11 13 16 17 16 18 19 19 18 16 18 19 18 18 20 22 23 24 25 25 27 28 27 26 26 24 21 22 25 25 22
22 22 19 15 11 9 8 7 6 6 7 9 12 12 14 14 15 14 14 16 17 17 17 18 20 20 19 21 23 26 27 26 28 27 27 26 25 24 22 24 26 28 24
18 16 12 11 10 7 6 5 5 5 5 6 10 10 13 14 12 13 14 15 17 18 19 18 18 20 20 21 22 21 23 24 24 26 25 26 26 26 25 25 26 24 24
13 11 10 9 7 7 5 3 3 5 6 6 8 9 11 14 15 14 15 16 17 19 19 20 19 18 18 20 21 21 22 22 25 25 26 26 26 25 26 26 27 27 25
12 10 8 8 6 4 3 4 5 4 6 6 9 11 12 14 16 16 16 17 18 19 21 22 20 19 18 19 20 22 22 22 22 24 25 26 28 27 26 25 25 25 26
10 8 6 4 4 5 4 4 6 5 5 8 11 12 12 12 14 16 18 20 20 21 22 22 22 21 21 20 20 20 21 24 24 25 26 28 28 26 26 25 25 23 23
8 6 6 6 6 6 4 5 6 5 7 9 10 11 12 13 16 18 20 20 21 22 23 23 23 22 23 22 22 22 22 20 23 25 28 28 29 28 26 25 25 27 26
7 6 6 7 7 6 5 5 5 5 8 9 10 12 13 14 16 18 20 21 22 23 23 24 25 25 25 24 23 23 22 20 18 23 27 29 29 28 27 26 26 26 26
8 8 7 8 8 6 5 6 8 8 8 9 11 12 15 15 18 20 21 21 22 24 25 23 25 25 24 25 23 22 20 19 17 18 26 28 28 27 26 25 26 25 25
Wind_Direction
266 267 262 262 261 260 258 260 261 264 263 262 260 259 258 254 253 254 254 254 254 255 257 257 259 260 259 258 255 251 248 244 245 267 270 279 285 295 298 297 299 288 290
268 269 267 268 265 262 261 262 263 263 264 263 262 259 258 256 256 254 255 252 250 251 253 255 257 259 259 260 260 257 253 251 243 257 268 276 282 288 293 296 298 276 290
262 265 267 268 267 265 266 266 264 262 262 262 259 258 258 258 256 256 257 258 256 257 256 254 259 257 258 257 258 257 256 255 253 249 264 273 279 283 287 287 293 276 289
259 261 264 268 270 270 270 268 265 263 261 260 258 259 259 260 259 259 259 259 259 259 260 259 259 258 260 258 258 257 256 255 254 253 257 266 272 278 277 279 278 281 294
265 263 269 273 269 267 265 264 265 263 260 260 260 258 258 258 259 258 257 259 261 262 263 263 263 263 263 259 252 253 251 249 245 244 249 256 261 259 256 274 264 278 297
262 269 275 271 268 264 263 261 260 258 257 259 258 260 260 260 261 261 260 260 260 260 257 261 265 261 255 252 249 247 251 245 237 233 241 240 251 252 264 262 258 272 306
268 271 269 266 264 262 262 259 256 255 257 256 257 258 261 265 266 264 260 256 259 258 256 255 255 260 263 261 259 252 249 245 244 250 238 240 245 258 263 254 247 250 257
271 270 267 264 264 265 262 260 259 258 256 256 259 260 263 267 269 270 267 256 253 256 257 255 254 258 261 262 261 259 255 247 242 241 247 255 257 262 258 263 269 261 268
271 272 270 267 267 267 263 262 262 260 259 258 261 264 264 270 273 275 275 264 256 255 254 258 256 258 264 253 248 250 249 252 257 251 250 255 256 257 249 246 236 230 261
277 281 285 279 270 268 268 268 269 266 264 264 263 263 267 271 278 282 282 269 257 257 257 255 256 257 261 254 244 242 239 248 258 255 252 246 242 241 238 245 239 226 228
294 293 290 288 282 277 274 273 270 264 260 260 264 268 273 277 284 289 289 277 260 261 258 256 252 258 249 247 243 244 244 252 256 253 256 254 246 237 232 234 237 233 233
293 295 297 295 290 285 280 276 270 265 263 264 267 271 275 281 290 295 296 287 277 261 260 262 259 258 255 249 246 245 248 246 243 244 243 248 243 235 234 232 232 239 251
301 299 299 301 295 291 285 281 273 261 254 255 257 263 274 285 292 293 294 290 283 275 268 264 263 261 259 250 247 249 252 243 232 224 224 237 246 243 241 237 235 242 246
305 303 303 302 303 302 297 285 273 262 254 250 245 254 275 288 289 297 300 300 296 290 286 280 270 260 255 251 249 250 247 243 232 218 226 239 246 239 238 237 233 236 240
304 303 304 304 301 296 290 283 275 271 257 252 260 270 275 282 290 294 296 291 289 289 286 284 282 269 256 241 238 243 247 244 233 218 220 225 233 235 232 233 231 228 225
298 303 304 301 299 295 291 292 280 266 266 268 273 278 287 288 294 299 299 293 293 292 279 269 264 254 244 238 233 233 237 235 231 217 219 220 216 224 229 224 225 221 222
297 303 304 304 300 294 289 275 273 274 274 267 278 285 285 294 305 305 304 304 299 294 272 268 262 255 245 240 238 231 231 237 230 220 213 217 217 218 214 218 222 222 220
304 303 303 303 298 285 269 258 258 269 296 305 309 310 311 313 312 311 313 312 310 304 283 276 270 266 256 246 244 238 239 236 230 223 219 214 212 210 208 210 208 211 211
303 301 301 293 279 266 263 269 271 278 289 303 317 324 324 320 318 317 321 317 317 314 311 299 295 286 271 261 251 244 239 232 232 222 221 217 212 206 210 213 210 212 208
302 299 292 281 278 267 263 276 291 299 312 321 326 332 332 334 331 328 329 327 325 320 318 315 312 305 286 270 264 254 243 232 226 221 218 217 214 210 211 210 208 203 202
288 281 275 271 271 278 284 293 290 298 309 321 322 329 322 319 314 312 310 312 311 315 316 317 314 305 300 291 275 263 252 241 227 223 218 216 213 207 209 209 209 208 202
282 275 257 249 252 248 256 278 287 294 309 311 319 325 324 316 316 307 304 308 310 306 309 308 305 301 300 295 290 271 256 246 234 223 218 215 214 211 207 202 203 202 200
270 256 250 254 257 258 250 264 282 291 300 310 316 324 324 313 312 315 314 310 313 314 308 298 301 300 303 299 292 287 273 251 243 229 216 213 212 207 202 197 196 196 195
263 259 255 240 238 245 259 278 276 288 296 307 318 317 316 317 314 311 313 313 311 313 313 315 302 291 298 301 300 291 279 283 258 238 225 214 210 209 201 196 193 197 198
268 260 254 258 252 248 266 257 268 283 300 305 310 314 318 316 314 317 321 316 317 313 311 312 311 305 304 297 292 294 282 275 279 251 232 216 216 211 202 197 195 195 195
258 256 260 258 258 259 245 266 280 285 290 298 308 312 316 324 328 321 316 316 314 315 313 311 309 309 303 299 293 297 289 274 263 264 231 217 212 206 200 197 195 190 191